DELTA 1 DEB, 7041

Orbit data source: Space-Track

DELTA 1 DEB, 7041 is space debris in SSO originally from a launch on Tue, 06 Nov 1973 UTC launched from the Air Force Western Test Range (AFWTR). Debris objects in space refer to the collection of defunct objects orbiting the Earth. Examples of debris include non-operational satellites, rocket bodies, and fragments generated from explosions, collisions, or faulty payload assembly.

Loading next visibility...
Identifier
7041, 1973-086AH
Orbit
SSO
Country
Flag of USUS
Related business
Manufacturer
Unknown
Mission
Spacecraft
Bus & Motor
Unknown
Mass
Unknown
Launch date (UTC)
1973-11-06 (52 years ago)
Launch vehicle
Unknown
Launch site
Air Force Western Test Range (AFWTR)
Object type
Payload
Rocket body
Debris
Shape & HBR
Unknown
Radar Cross Section
Medium (>0.1 m² and <1 m²)

Expand to show TLE details & history
Last TLE update: 7 hours ago

TLE from 7 hours ago
0 DELTA 1 DEB
1 07041U 73086AH  25259.62808904  .00000375  00000-0  30439-2 0  9992
2 07041 101.5882 292.4574 0182028  17.3402 103.8219 12.37585044320750
Epoch: 2025-09-16T15:04Z
TLE epoch observation values (Epoch: 2025-09-16T15:04:26.893Z)
Latitude
55.17108°
Longitude
-92.41533°
Altitude
1,562.585 km
Speed
7.075 km/s
True Right ascension
08h 38m 02s
True Declination
55° 01' 34"
Sunlit
Object was in daylight at epoch
Visualization orbit readout
Latitude
Unknown
Longitude
Unknown
Altitude
Unknown
Speed
Unknown
Apparent Right ascension
Unknown
Apparent Declination
Unknown
Sunlit
N/A
Visualization observer readout
Local Sidereal Time
14:31:54
Azimuth
Unknown
Elevation
Unknown
Doppler factor
Unknown
Orbital elements
Apogee altitude
1,658.076 km
Perigee altitude
1,370.743 km
Semi-major axis
7,892.547 km
Eccentricity
0.0182
Inclination
101.5882°
RAAN
292.4574°
Arg. of periapsis
17.3402°
True anomaly
105.83602°
Mean anomaly
103.8219°
Eccentric anomaly
104.8301°
Mean motion
3.0954 °/min
Orbital period
116.3 mins
BSTAR
0.0030439
Loading maneuver chart data...
Computing Atmospheric mass density...
Loading historical data...
Loading historical data...
Loading historical data...
Loading historical data...
Loading historical data...
Loading historical data...
Loading historical data...

Documentation

Showing up to 5 results
|